Simultaneous Nadir Overpasses (SNOs) Predictions

Prediction of SNOs between LANDSAT-8 and METOP-A Satellite Orbit:

Table of predicted SNOs for the next 14.0 days since TLE Epoch: 1/3/2015
Index Date (LANDSAT-8) Time (LANDSAT-8) Lat,Lon (LANDSAT-8) SZA (LANDSAT-8 ) Date (METOP-A) Time (METOP-A) Lat,Lon (METOP-A) SZA (METOP-A ) Distance(km) Time Diff (sec)
1 01/05/2015 13:54:35 81.12, 10.99 105.50 01/05/2015 13:54:17 81.12, 11.05 105.50 1.03 18
2 01/05/2015 14:44:01 -81.14, 178.98 74.46 01/05/2015 14:44:56 -81.14, 179.09 74.43 1.86 55
3 01/08/2015 09:28:49 81.12, 77.49 105.13 01/08/2015 09:28:37 81.12, 77.34 105.11 2.59 12
4 01/08/2015 10:18:15 -81.14,-114.50 74.82 01/08/2015 10:19:16 -81.14,-114.62 74.82 2.16 61
5 01/11/2015 05:03:03 81.13, 144.05 104.72 01/11/2015 05:02:56 81.12, 143.95 104.70 1.92 7
6
